Time,TemperatureF,DewpointF,PressureIn,WindDirection,WindDirectionDegrees,WindSpeedMPH,WindSpeedGustMPH,Humidity,HourlyPrecipIn,Conditions,Clouds,dailyrainin,SoftwareType,DateUTC
2013-06-27 04:11:00,71.0,65.0,29.88,West,270,4.0,6.0,80,-99.99,,,-99.99,,2013-06-27 09:11:00,
2013-06-27 04:22:00,71.0,65.0,29.88,WNW,292,4.0,5.0,79,-99.99,,,-99.99,,2013-06-27 09:22:00,
2013-06-27 05:11:00,69.0,65.0,29.88,NW,315,2.0,3.0,85,-99.99,,,-99.99,,2013-06-27 10:11:00,
2013-06-27 06:52:00,69.0,65.0,29.90,WSW,247,3.0,5.0,89,-99.99,,,-99.99,,2013-06-27 11:52:00,
2013-06-27 07:34:00,72.0,67.0,29.90,WSW,247,5.0,7.0,83,-99.99,,,-99.99,,2013-06-27 12:34:00,
2013-06-27 07:42:00,73.0,67.0,29.90,SW,225,5.0,7.0,83,-99.99,,,-99.99,,2013-06-27 12:42:00,
2013-06-27 09:33:00,84.0,67.0,29.92,WNW,292,5.0,7.0,58,-99.99,,,-99.99,,2013-06-27 14:33:00,
2013-06-27 09:43:00,84.0,71.0,29.92,WSW,247,3.0,6.0,64,-99.99,,,-99.99,,2013-06-27 14:43:00,
2013-06-27 10:12:00,85.0,68.0,29.92,West,270,4.0,6.0,58,-99.99,,,-99.99,,2013-06-27 15:12:00,
2013-06-27 11:11:00,90.0,64.0,29.93,WNW,292,7.0,11.0,42,-99.99,,,-99.99,,2013-06-27 16:11:00,
2013-06-27 12:33:00,93.0,61.0,29.93,WNW,292,7.0,11.0,35,-99.99,,,-99.99,,2013-06-27 17:33:00,
2013-06-27 14:34:00,88.0,68.0,29.94,WNW,292,7.0,11.0,52,-99.99,,,-99.99,,2013-06-27 19:34:00,
2013-06-27 15:11:00,89.0,67.0,29.95,WNW,292,16.0,21.0,48,-99.99,,,-99.99,,2013-06-27 20:11:00,
2013-06-27 17:06:00,83.0,71.0,29.89,SSW,202,2.0,3.0,67,-99.99,,,-99.99,,2013-06-27 22:06:00,
2013-06-27 17:23:00,83.0,72.0,29.90,WSW,247,2.0,4.0,70,-99.99,,,-99.99,,2013-06-27 22:23:00,
2013-06-27 19:27:00,82.0,74.0,29.84,West,270,2.0,4.0,77,-99.99,,,-99.99,,2013-06-28 00:27:00,
2013-06-27 19:34:00,82.0,74.0,29.84,West,270,5.0,7.0,77,-99.99,,,-99.99,,2013-06-28 00:34:00,
2013-06-27 19:54:00,82.0,72.0,29.84,West,270,4.0,7.0,73,-99.99,,,-99.99,,2013-06-28 00:54:00,
2013-06-27 20:07:00,81.0,72.0,29.84,West,270,4.0,6.0,75,-99.99,,,-99.99,,2013-06-28 01:07:00,
2013-06-27 20:13:00,81.0,72.0,29.84,WNW,292,5.0,8.0,74,-99.99,,,-99.99,,2013-06-28 01:13:00,
2013-06-27 20:24:00,81.0,72.0,29.84,WNW,292,5.0,8.0,74,-99.99,,,-99.99,,2013-06-28 01:24:00,
2013-06-27 21:17:00,77.0,71.0,29.85,West,270,3.0,5.0,84,-99.99,,,-99.99,,2013-06-28 02:17:00,
2013-06-27 21:25:00,76.0,71.0,29.86,West,270,3.0,6.0,84,-99.99,,,-99.99,,2013-06-28 02:25:00,
2013-06-27 21:54:00,76.0,71.0,29.86,West,270,3.0,6.0,84,-99.99,,,-99.99,,2013-06-28 02:54:00,
2013-06-27 22:07:00,76.0,71.0,29.86,West,270,3.0,6.0,84,-99.99,,,-99.99,,2013-06-28 03:07:00,
2013-06-27 22:14:00,76.0,71.0,29.86,West,270,3.0,6.0,84,-99.99,,,-99.99,,2013-06-28 03:14:00,
2013-06-27 23:02:00,74.0,71.0,29.90,West,270,4.0,7.0,89,-99.99,,,-99.99,,2013-06-28 04:02:00,
2013-06-27 23:12:00,73.0,71.0,29.90,West,270,3.0,4.0,92,-99.99,,,-99.99,,2013-06-28 04:12:00,
2013-06-27 23:22:00,74.0,71.0,29.90,West,270,3.0,6.0,92,-99.99,,,-99.99,,2013-06-28 04:22:00,
2013-06-27 23:33:00,73.0,71.0,29.89,WSW,247,2.0,3.0,93,-99.99,,,-99.99,,2013-06-28 04:33:00,